FLOCK 3K-12 (43903 NORAD) Tracking and Keplerian Element Data

This shows tracking and keplerian element data for the satellite.

Feedback or suggestion? Click here.




ElementValue
Catalog43903
NameFLOCK 3K-12
Epoch Orbit316
Epoch Day16.83483522
Epoch Year2019
RAAN286.1747
Inclination97.2995
Eccentricity0.0022772
Argument of Perigee167.8674
Mean Anonmoly192.3116
Mean Motion15.23699619
Decay Rate1.616E-05
L11 43903U 18111AD 19016.83483522 .00001616 00000-0 69765-4 0 9994
L22 43903 97.2995 286.1747 0022772 167.8674 192.3116 15.23699619 3160

Live tracking and technical data element details for FLOCK 3K-12 (NORAD 43903). FLOCK 3K-12 can be tracked NOW for your location showing map with azimuth and elevation plus other details from your city location.

Track the satellite on the map from your city or location and see movement details for azimuth, elevation, latitude, longitude, range, height, and movement on the map or in text.







IsCatalogInMostPopularTable: catalog: 43903, numindb: 17
Update: records affected: 1



GetName: 43903 FLOCK 3K-12

Hit Count: updated at: Thu, 17 Jan 2019 15:03:43 GMT